GW2134 Weather Reports


Display with metric or nautical units.
time (UTC)temp
F
wind
direction
speed
MPH
gust
MPH
rain 1hr
in
rain 24hr
in
rain mn
in
humidity
%
barometer
mb
20260904183102 79 325 2.0 5.0 0.00 0.00 0.00 51 1023.0
20260904181559 79 345 3.0 6.0 0.00 0.00 0.00 49 1022.8
20260904180104 81 331 3.0 5.0 0.00 0.00 0.00 43 1022.7
20260904174601 82 0 0.0 2.0 0.00 0.00 0.00 43 1022.5
20260904173126 83 0 0.0 1.0 0.00 0.00 0.00 43 1022.6
20260904171611 83 0 0.0 4.0 0.00 0.00 0.00 44 1022.6
20260904170105 84 0 0.0 4.0 0.00 0.00 0.00 45 1022.6
20260904164601 85 41 1.0 3.0 0.00 0.00 0.00 44 1022.7
20260904163108 86 0 0.0 1.0 0.00 0.00 0.00 45 1022.8
20260904161605 86 157 0.0 6.0 0.00 0.00 0.00 44 1022.8
20260904160054 87 176 1.0 9.0 0.00 0.00 0.00 43 1022.9
20260904154601 88 194 4.0 13.0 0.00 0.00 0.00 40 1022.8
20260904153059 90 198 3.0 9.0 0.00 0.00 0.00 39 1022.9
20260904151616 91 128 3.0 8.0 0.00 0.00 0.00 38 1022.9
20260904150125 90 188 1.0 9.0 0.00 0.00 0.00 40 1022.9
20260904144601 91 267 1.0 8.0 0.00 0.00 0.00 41 1023.0
20260904143113 91 121 2.0 9.0 0.00 0.00 0.00 42 1023.2
20260904141615 91 41 5.0 11.0 0.00 0.00 0.00 40 1023.4
20260904140121 91 127 3.0 9.0 0.00 0.00 0.00 40 1023.4
20260904134620 91 130 3.0 11.0 0.00 0.00 0.00 40 1023.4
20260904133110 91 128 5.0 11.0 0.00 0.00 0.00 37 1023.6
20260904131601 91 180 4.0 11.0 0.00 0.00 0.00 39 1023.6
20260904130109 91 120 2.0 10.0 0.00 0.00 0.00 38 1023.7
20260904124602 91 172 3.0 9.0 0.00 0.00 0.00 39 1023.7
20260904123107 90 113 4.0 13.0 0.00 0.00 0.00 39 1024.0
20260904121559 90 88 4.0 9.0 0.00 0.00 0.00 39 1024.1
20260904120107 90 120 4.0 10.0 0.00 0.00 0.00 40 1024.2
20260904114556 90 0 2.0 10.0 0.00 0.00 0.00 39 1024.2
20260904113054 90 0 2.0 10.0 0.00 0.00 0.00 39 1024.2
20260904111606 90 146 4.0 8.0 0.00 0.00 0.00 38 1024.4
20260904104557 89 0 3.0 9.0 0.00 0.00 0.00 40 1024.4
20260904103105 89 127 3.0 9.0 0.00 0.00 0.00 41 1024.4
20260904101602 89 121 1.0 8.0 0.00 0.00 0.00 43 1024.5
20260904100104 88 159 1.0 7.0 0.00 0.00 0.00 43 1024.8
20260904094605 88 92 1.0 4.0 0.00 0.00 0.00 42 1024.9
20260904093109 87 0 0.0 4.0 0.00 0.00 0.00 38 1024.9
20260904091559 87 121 1.0 4.0 0.00 0.00 0.00 42 1025.0
20260904090104 86 106 0.0 3.0 0.00 0.00 0.00 46 1025.0
20260904084603 85 100 0.0 2.0 0.00 0.00 0.00 48 1025.0
20260904083100 84 0 0.0 3.0 0.00 0.00 0.00 49 1024.9
20260904081555 83 90 0.0 3.0 0.00 0.00 0.00 51 1024.8
20260904080054 81 0 0.0 3.0 0.00 0.00 0.00 53 1024.8
20260904074600 80 106 1.0 2.0 0.00 0.00 0.00 55 1024.7
20260904073058 78 103 0.0 2.0 0.00 0.00 0.00 59 1024.7
20260904071559 78 0 0.0 3.0 0.00 0.00 0.00 62 1024.8
20260904070059 77 89 0.0 2.0 0.00 0.00 0.00 65 1024.6
20260904064601 74 86 0.0 2.0 0.00 0.00 0.00 66 1024.6
20260904063116 73 82 0.0 2.0 0.00 0.00 0.00 68 1024.6
20260904061555 71 355 0.0 1.0 0.00 0.00 0.00 71 1024.5
20260904060055 70 0 0.0 2.0 0.00 0.00 0.00 69 1024.5
20260904054554 70 0 0.0 2.0 0.00 0.00 0.00 72 1024.5
20260904053058 70 0 1.0 3.0 0.00 0.00 0.00 71 1024.5
20260904051605 69 0 0.0 2.0 0.00 0.00 0.00 69 1024.3
20260904050058 69 5 2.0 3.0 0.00 0.00 0.00 70 1024.3
20260904044554 69 0 0.0 2.0 0.00 0.00 0.00 70 1024.2
20260904043103 69 0 0.0 2.0 0.00 0.00 0.00 70 1024.4
20260904041600 69 0 0.0 1.0 0.00 0.00 0.00 69 1024.4
20260904040105 69 0 0.0 4.0 0.00 0.00 0.00 70 1024.3
20260904034603 69 0 0.0 1.0 0.00 0.00 0.00 69 1024.3
20260904033059 70 0 0.0 3.0 0.00 0.00 0.00 69 1024.3
20260904031603 70 36 2.0 5.0 0.00 0.00 0.00 69 1024.4
20260904030103 70 5 1.0 3.0 0.00 0.00 0.00 69 1024.3
20260904024557 69 323 0.0 2.0 0.00 0.00 0.00 68 1024.4
20260904023104 70 319 2.0 4.0 0.00 0.00 0.00 69 1024.3
20260904021607 70 0 1.0 4.0 0.00 0.00 0.00 68 1024.3
20260904020101 70 325 2.0 5.0 0.00 0.00 0.00 70 1024.3
20260904014601 70 24 1.0 4.0 0.00 0.00 0.00 68 1024.4
20260904013052 70 19 0.0 2.0 0.00 0.00 0.00 68 1024.5
20260904011606 70 0 0.0 1.0 0.00 0.00 0.00 67 1024.5
20260904010058 70 0 2.0 5.0 0.00 0.00 0.00 67 1024.6
20260904004555 70 15 2.0 4.0 0.00 0.00 0.00 68 1024.6
20260904003053 70 0 0.0 0.0 0.00 0.00 0.00 67 1024.6
20260904001553 70 0 0.0 1.0 0.00 0.00 0.00 67 1024.6
20260904000120 70 323 1.0 4.0 0.00 0.00 0.00 67 1024.6
20260903234556 70 344 2.0 4.0 0.00 0.00 0.00 66 1024.6
20260903233103 70 17 2.0 5.0 0.00 0.00 0.00 66 1024.7
20260903231555 70 346 2.0 4.0 0.00 0.00 0.00 66 1024.6
20260903230110 71 9 1.0 5.0 0.00 0.00 0.00 66 1024.7
20260903224617 71 39 0.0 4.0 0.00 0.00 0.00 66 1024.5
20260903223059 71 355 0.0 6.0 0.00 0.00 0.00 65 1024.5
20260903221608 71 5 1.0 4.0 0.00 0.00 0.00 66 1024.6
20260903220057 71 0 0.0 2.0 0.00 0.00 0.00 65 1024.6
20260903214610 71 0 0.0 3.0 0.00 0.00 0.00 65 1024.6
20260903213102 71 11 4.0 8.0 0.00 0.00 0.00 64 1024.4
20260903211555 72 360 3.0 6.0 0.00 0.00 0.00 64 1024.5
20260903210128 71 9 2.0 4.0 0.00 0.00 0.00 64 1024.4
20260903204601 72 24 3.0 6.0 0.00 0.00 0.00 64 1024.4
20260903203110 72 22 0.0 4.0 0.00 0.00 0.00 63 1024.4
20260903201554 73 0 2.0 3.0 0.00 0.00 0.00 62 1024.5
20260903194559 73 9 4.0 6.0 0.00 0.00 0.00 61 1024.3
20260903193059 74 355 4.0 7.0 0.00 0.00 0.00 61 1024.4
20260903191559 74 252 2.0 6.0 0.00 0.00 0.00 60 1024.3
20260903184559 74 355 4.0 8.0 0.00 0.00 0.00 60 1024.2